Starlink 32658

operational
NORAD ID: 62999 Int'l Des: 2025-031 Owner: SPXS Country: US Constellation: starlink
LEOCIRCULAR

About Starlink 32658

Description loading...

Live Position

Loading 3D Globe...

Upcoming Passes

Altitude History

Altitude vs Time

uPlot chart will show altitude changes over time

Two-Line Element Set

1 62999U 25031U 25352.39324907 .00019871 00000-0 72968-3 0 9991
2 62999 42.9978 242.3091 0001325 270.6795 89.3904 15.27579531 48666
Epoch: Dec 18, 2025 • Age: 13 hours

Current Status

Altitude 483.0 km
Velocity 7.63 km/s
Sub-Earth Point -2.83°S, 178.96°E
Launch Date Feb 11, 2025
Age 0.8 years
Type internet

Technical Details

Classification Payload
Mass 730.00 kg
Dry Mass 700.00 kg
Total Mass 730.00 kg
Length 0.30 m
Diameter 4.10 m
Span 29.00 m
Shape Box + pan
Manufacturer SPXS
Bus Type Starlink V2M
Phase Status In Orbit
Owner/State SPXS/US

Large Constellations

Loading constellations...